Voltar ao catálogo

STARLINK-3605

AtivoComunicaçõesVLEO
NORAD 51805·PAYLOAD·🇺🇸 United States

Lançado Feb 25, 2022 de Vandenberg Space Force Base

Loading…

Próximas Passagens (próximas 24 horas)

TLE

AtualizadoSource: CelesTrak SupGP

Época: Sep 14, 2026, 21:41 UTC

1 51805C 22017AP  26257.90395833 -.00015749  00000+0 -47788-3 0  2574
2 51805  53.1592 190.0019 0001434  91.4230  94.7304 15.33556669    14

Acompanhe STARLINK-3605 em tempo real com AllMySat

Download on the App Store